Location: Stoke Bliss
(52.2667°N, 2.5167°W)
Time: 14:49:29
(UTC+00:00)

Cosmos 44 Rocket - Pass Details

Date: 03 March 2021
Orbit: 636 x 754 km, 65.1° (Epoch: 13 April)

Event Time Altitude Azimuth Distance (km) Brightness Sun altitude
Rises 18:17:46 0° 317° (NW) 3,206 7.3 -4.5°
Reaches altitude 10° 18:20:10 10° 317° (NW) 2,284 6.6 -4.9°
Maximum altitude 18:25:26 85° 230° (SW) 764 3.6 -5.7°
Drops below altitude 10° 18:30:39 10° 142° (SE) 2,265 5.6 -6.5°
Sets 18:33:01 0° 142° (SE) 3,177 6.3 -6.9°
